Cochin International Airport

Airport
ICAO code: 
VOCI
Summary
ICAO Region: 
APAC
Territory: 
Location: 
Kochi, Kerala,
Coordinates: 
Aerial View: 
10° 9' 6.236" N, 76° 24' 2.931" E
Airport WX: 
Cumulonimbus
Metar
Observation
VOCI 240630Z 34006KT 6000 FEW020 30/17 Q1010 NOSIG
Station
COCHIN INTL
Date/Time
2022-01-24 06:30:00
Wind direction
340°
Wind speed
06 kts
Lowest cloud amount
few clouds
Temperature
30°C
Dew point
17°C
Humidity
45%
QNH
1010 hPa
Weather condition
n/a

Description

Cochin Airport is an airport serving the city of Kochi (Cochin) in the state of Kerala, India. The airport is located 30 km northeast of the centre of Kochi.

Climatology

Tropical Monsoon climate (Köppen climate classification Am) - monthly mean temperatures above 18°C in every month of the year and features wet and dry seasons. A tropical monsoon climate typically features less pronounced dry seasons than a tropical savanna climate and sees less variance in temperatures during the course of the year. The driest month nearly always occurs at or soon after the "winter" solstice.

Runways

Designator Length Width Surface Rops
9/27 3400 45 ASP Yes/Yes
Airport map: 
Aerial View: 

Accidents and Serious Incidents at or in the vicinity of VOCI

SKYbrary Partners:

Safety knowledge contributed by: